Altus, OK

10:16 AM CDT on July 28, 2017 (GMT -0500)
Altus Municipal

Weather History for KAXS - March, 2013

Change the Weather History Date:

Friday, March 22, 2013

  Actual Average (KLTS) Record (KLTS)
Temperature  
Mean Temperature 44 °F -  
Max Temperature 49 °F 64 °F 87 °F (2011)
Min Temperature 39 °F 41 °F 21 °F (2002)
Degree Days  
Heating Degree Days 21    
Moisture  
Dew Point 36 °F    
Average Humidity 73    
Maximum Humidity 87    
Minimum Humidity 61    
Precipitation  
Precipitation 0.00 in - - ()
Sea Level Pressure  
Sea Level Pressure 29.83 in    
Wind  
Wind Speed 17 mph (NE)    
Max Wind Speed 29 mph    
Max Gust Speed 38 mph    
Visibility 10 miles    
Events      
Averages and records for this station are not official NWS values.
T = Trace of Precipitation, MM = Missing Value Source: NWS Daily Summary

Daily Weather History Graph

Daily Weather History Graph

Search for Another Location

Airport or City:

Trip Planner

Search our weather history database for the weather conditions in past years. The results will help you decide how hot, cold, wet, or windy it might be!

Date:

Astronomy

Mar. 22, 2013 Rise Set
Actual Time 7:37 AM CDT 7:50 PM CDT
Civil Twilight 7:12 AM CDT 8:16 PM CDT
Nautical Twilight 6:43 AM CDT 8:45 PM CDT
Astronomical Twilight 6:13 AM CDT 9:15 PM CDT
Moon 3:29 PM CDT (3/22) 4:28 AM CDT (3/22)
Length of Visible Light 13h 03m
Length of Day
12h 13m
Waxing Gibbous, 77% of the Moon is Illuminated
Mar 22
Waxing Gibbous
Mar 27
Full
Apr 2
Last Quarter
Apr 10
New
Apr 18
First Quarter

Hourly Weather History & Observations

Time (CDT) Temp. Windchill Dew Point Humidity Pressure Visibility Wind Dir Wind Speed Gust Speed Precip Events Conditions
12:15 AM 48.6 °F - 39.6 °F 71% 29.58 in 10.0 mi NE 16.1 mph - N/A   Clear
12:35 AM 47.5 °F - 38.5 °F 71% 29.59 in 10.0 mi NE 17.3 mph 23.0 mph N/A   Clear
12:55 AM 46.9 °F - 38.3 °F 72% 29.60 in 10.0 mi NE 21.9 mph 25.3 mph N/A   Clear
1:15 AM 46.6 °F - 37.8 °F 71% 29.61 in 10.0 mi NE 19.6 mph 24.2 mph N/A   Clear
1:35 AM 46.4 °F 38.7 °F 37.6 °F 71% 29.63 in 10.0 mi NNE 20.7 mph 26.5 mph N/A   Clear
1:55 AM 47.5 °F - 37.6 °F 69% 29.65 in 10.0 mi NE 24.2 mph 28.8 mph N/A   Mostly Cloudy
2:15 AM 48.4 °F - 37.6 °F 66% 29.66 in 10.0 mi NE 24.2 mph 31.1 mph N/A   Overcast
2:35 AM 48.9 °F - 37.6 °F 65% 29.67 in 10.0 mi NNE 19.6 mph 26.5 mph N/A   Overcast
2:55 AM 47.5 °F - 36.5 °F 66% 29.69 in 10.0 mi NNE 20.7 mph 26.5 mph N/A   Overcast
3:15 AM 45.9 °F 37.4 °F 35.6 °F 67% 29.72 in 10.0 mi North 24.2 mph 27.6 mph N/A   Overcast
3:35 AM 44.2 °F 34.4 °F 34.7 °F 69% 29.73 in 10.0 mi North 28.8 mph 38.0 mph N/A   Overcast
3:55 AM 43.2 °F 33.2 °F 34.0 °F 70% 29.75 in 10.0 mi NNE 27.6 mph 33.4 mph N/A   Overcast
4:15 AM 42.3 °F 32.2 °F 34.2 °F 73% 29.77 in 10.0 mi North 26.5 mph 33.4 mph N/A   Overcast
4:35 AM 41.7 °F 31.2 °F 36.0 °F 80% 29.78 in 7.0 mi NNE 27.6 mph 34.5 mph N/A   Overcast
4:55 AM 41.0 °F 30.7 °F 37.0 °F 86% 29.79 in 3.0 mi NNE 25.3 mph 32.2 mph N/A   Overcast
5:15 AM 40.1 °F 29.0 °F 36.5 °F 87% 29.80 in 4.0 mi NNE 27.6 mph 32.2 mph N/A   Overcast
5:35 AM 40.1 °F 29.9 °F 36.0 °F 85% 29.80 in 7.0 mi NNE 23.0 mph 28.8 mph N/A   Overcast
5:55 AM 39.6 °F 29.0 °F 35.4 °F 85% 29.79 in 7.0 mi NNE 24.2 mph 29.9 mph N/A   Overcast
6:15 AM 39.7 °F 29.5 °F 35.2 °F 84% 29.79 in 10.0 mi NNE 23.0 mph 28.8 mph N/A   Overcast
6:55 AM 39.6 °F 30.3 °F 34.7 °F 83% 29.81 in 10.0 mi NE 18.4 mph - N/A   Overcast
7:15 AM 39.9 °F 30.8 °F 34.7 °F 82% 29.82 in 10.0 mi NE 18.4 mph 26.5 mph N/A   Overcast
7:35 AM 40.1 °F 33.2 °F 34.9 °F 82% 29.85 in 10.0 mi NE 11.5 mph - N/A   Overcast
7:55 AM 40.3 °F 32.6 °F 34.9 °F 81% 29.85 in 10.0 mi NE 13.8 mph - N/A   Overcast
8:15 AM 40.5 °F 32.5 °F 35.1 °F 81% 29.87 in 10.0 mi NE 15.0 mph - N/A   Overcast
8:35 AM 40.5 °F 33.6 °F 35.1 °F 81% 29.87 in 10.0 mi NE 11.5 mph - N/A   Overcast
8:55 AM 40.6 °F 34.3 °F 35.1 °F 80% 29.87 in 10.0 mi NE 10.4 mph - N/A   Overcast
9:15 AM 41.0 °F 33.5 °F 35.4 °F 81% 29.88 in 10.0 mi NNE 13.8 mph - N/A   Overcast
9:35 AM 41.4 °F 34.0 °F 35.6 °F 80% 29.88 in 10.0 mi NNE 13.8 mph - N/A   Overcast
9:55 AM 42.4 °F 35.3 °F 36.0 °F 78% 29.89 in 10.0 mi NNE 13.8 mph - N/A   Overcast
10:15 AM 42.3 °F 35.5 °F 35.8 °F 78% 29.90 in 10.0 mi NE 12.7 mph 17.3 mph N/A   Overcast
10:35 AM 42.6 °F 35.6 °F 36.0 °F 77% 29.91 in 10.0 mi NNE 13.8 mph - N/A   Overcast
10:55 AM 42.8 °F 35.4 °F 35.8 °F 76% 29.91 in 10.0 mi NNE 15.0 mph - N/A   Overcast
11:15 AM 42.8 °F 35.4 °F 35.6 °F 76% 29.92 in 10.0 mi North 15.0 mph - N/A   Overcast
11:35 AM 43.2 °F 35.9 °F 36.0 °F 76% 29.93 in 10.0 mi North 15.0 mph - N/A   Overcast
11:55 AM 42.1 °F 34.5 °F 35.6 °F 78% 29.93 in 7.0 mi North 15.0 mph - N/A   Overcast
12:15 PM 42.4 °F 35.0 °F 35.6 °F 77% 29.94 in 10.0 mi North 15.0 mph - N/A   Overcast
12:35 PM 43.0 °F 36.8 °F 35.4 °F 75% 29.94 in 10.0 mi NNE 11.5 mph 20.7 mph N/A   Overcast
12:55 PM 43.9 °F 36.5 °F 35.8 °F 73% 29.93 in 10.0 mi NNE 16.1 mph - N/A   Overcast
1:15 PM 45.0 °F 38.9 °F 36.1 °F 71% 29.93 in 10.0 mi North 12.7 mph - N/A   Overcast
1:35 PM 45.7 °F 39.1 °F 36.0 °F 69% 29.92 in 10.0 mi NNE 15.0 mph - N/A   Overcast
1:55 PM 47.3 °F - 36.5 °F 66% 29.90 in 10.0 mi NNE 16.1 mph 19.6 mph N/A   Mostly Cloudy
2:15 PM 47.3 °F - 36.1 °F 65% 29.90 in 10.0 mi NNE 15.0 mph - N/A   Mostly Cloudy
2:35 PM 46.4 °F 39.8 °F 35.6 °F 66% 29.87 in 10.0 mi North 16.1 mph - N/A   Scattered Clouds
2:55 PM 46.6 °F - 35.6 °F 66% 29.88 in 10.0 mi NNE 10.4 mph - N/A   Scattered Clouds
3:15 PM 46.8 °F - 35.6 °F 65% 29.86 in 10.0 mi North 13.8 mph - N/A   Scattered Clouds
3:35 PM 47.1 °F - 35.6 °F 64% 29.85 in 10.0 mi NNE 15.0 mph 19.6 mph N/A   Clear
3:55 PM 47.8 °F - 35.8 °F 63% 29.85 in 10.0 mi North 11.5 mph - N/A   Clear
4:15 PM 48.4 °F - 35.8 °F 62% 29.86 in 10.0 mi North 5.8 mph 16.1 mph N/A   Clear
4:55 PM 48.2 °F - 35.6 °F 62% 29.83 in 10.0 mi NNE 11.5 mph - N/A   Clear
5:15 PM 48.6 °F - 35.6 °F 61% 29.83 in 10.0 mi NE 10.4 mph - N/A   Clear
5:35 PM 49.1 °F - 36.0 °F 61% 29.82 in 10.0 mi NE 11.5 mph 16.1 mph N/A   Clear
5:55 PM 47.8 °F - 35.6 °F 63% 29.82 in 10.0 mi NE 16.1 mph - N/A   Clear
6:15 PM 47.1 °F - 35.4 °F 64% 29.84 in 10.0 mi NE 9.2 mph - N/A   Clear
6:35 PM 46.4 °F 42.9 °F 35.1 °F 65% 29.85 in 10.0 mi ENE 6.9 mph - N/A   Clear
6:55 PM 46.9 °F - 35.6 °F 65% 29.84 in 10.0 mi ENE 9.2 mph - N/A   Clear
7:15 PM 46.4 °F 41.9 °F 35.4 °F 66% 29.85 in 10.0 mi NE 9.2 mph - N/A   Clear
7:35 PM 45.9 °F 42.3 °F 35.6 °F 67% 29.86 in 10.0 mi East 6.9 mph - N/A   Clear
7:55 PM 44.6 °F 40.2 °F 35.6 °F 71% 29.86 in 10.0 mi East 8.1 mph - N/A   Clear
8:15 PM 43.7 °F 39.1 °F 35.6 °F 73% 29.86 in 10.0 mi East 8.1 mph - N/A   Mostly Cloudy
8:35 PM 42.8 °F 38.6 °F 35.6 °F 76% 29.86 in 10.0 mi East 6.9 mph - N/A   Scattered Clouds
8:55 PM 42.1 °F 37.7 °F 35.8 °F 78% 29.87 in 10.0 mi NE 6.9 mph - N/A   Mostly Cloudy
9:15 PM 43.7 °F 40.3 °F 36.3 °F 75% 29.87 in 10.0 mi ENE 5.8 mph - N/A   Mostly Cloudy
9:35 PM 44.2 °F 40.3 °F 36.5 °F 74% 29.88 in 10.0 mi ENE 6.9 mph - N/A   Overcast
9:55 PM 44.6 °F 40.2 °F 36.3 °F 73% 29.88 in 10.0 mi ENE 8.1 mph - N/A   Mostly Cloudy
10:15 PM 44.4 °F 40.5 °F 36.1 °F 73% 29.88 in 10.0 mi NE 6.9 mph - N/A   Overcast
10:35 PM 44.1 °F 39.5 °F 36.3 °F 74% 29.87 in 10.0 mi ENE 8.1 mph - N/A   Overcast
10:55 PM 44.1 °F 39.0 °F 36.5 °F 75% 29.87 in 10.0 mi ENE 9.2 mph - N/A   Overcast
11:15 PM 43.9 °F 38.8 °F 36.5 °F 75% 29.87 in 10.0 mi ENE 9.2 mph - N/A   Overcast
11:35 PM 43.3 °F 39.2 °F 36.5 °F 77% 29.87 in 7.0 mi ENE 6.9 mph - N/A   Overcast
11:55 PM 43.7 °F 39.7 °F 36.5 °F 76% 29.86 in 7.0 mi East 6.9 mph - N/A   Mostly Cloudy